"datetime","temp","dp","rain_mm","uv","solar","mb","wind_mph","gust_mph","windchill","rh"
"2022-05-31 00:00:00",10.2,9.7,0.0,0.0,0,1011.0,0,1,"",97
"2022-05-31 00:01:00",10.2,9.7,0.0,0.0,0,1011.0,0,1,"",97
"2022-05-31 00:02:00",10.2,9.7,0.0,0.0,0,1011.0,1,1,"",97
"2022-05-31 00:03:00",10.2,9.7,0.0,0.0,0,1011.0,1,1,"",97
"2022-05-31 00:04:00",10.2,9.7,0.0,0.0,0,1011.0,1,2,"",97
"2022-05-31 00:05:00",10.2,9.7,0.0,0.0,0,1011.0,0,1,"",97
"2022-05-31 00:06:00",10.2,9.7,0.0,0.0,0,1011.1,1,1,"",97
"2022-05-31 00:07:00",10.2,9.7,0.0,0.0,0,1011.1,0,1,"",97
"2022-05-31 00:08:00",10.2,9.7,0.0,0.0,0,1011.1,0,0,"",97
"2022-05-31 00:09:00",10.2,9.7,0.0,0.0,0,1011.1,0,0,"",97
"2022-05-31 00:10:00",10.2,9.7,0.0,0.0,0,1011.1,0,0,"",97
"2022-05-31 00:11:00",10.2,9.7,0.0,0.0,0,1011.0,0,1,"",97
"2022-05-31 00:12:00",10.1,9.6,0.0,0.0,0,1011.0,0,1,"",97
"2022-05-31 00:13:00",10.1,9.6,0.0,0.0,0,1011.0,0,1,"",97
"2022-05-31 00:14:00",10.1,9.6,0.0,0.0,0,1011.0,0,1,"",97
"2022-05-31 00:15:00",10.1,9.6,0.0,0.0,0,1011.0,0,1,"",97
"2022-05-31 00:16:00",10.0,9.5,0.0,0.0,0,1011.0,1,1,"",97
"2022-05-31 00:17:00",9.9,9.4,0.0,0.0,0,1011.0,1,2,"",97
"2022-05-31 00:18:00",9.9,9.4,0.0,0.0,0,1011.0,1,1,"",97
"2022-05-31 00:19:00",9.8,9.3,0.0,0.0,0,1011.0,0,1,"",97
"2022-05-31 00:20:00",9.8,9.3,0.0,0.0,0,1011.0,0,1,"",97
"2022-05-31 00:21:00",9.7,9.2,0.0,0.0,0,1011.0,0,1,"",97
"2022-05-31 00:22:00",9.6,9.1,0.0,0.0,0,1011.0,1,1,"",97
"2022-05-31 00:23:00",9.6,9.1,0.0,0.0,0,1011.0,0,1,"",97
"2022-05-31 00:24:00",9.5,9.0,0.0,0.0,0,1011.0,0,1,"",97
"2022-05-31 00:25:00",9.4,8.9,0.0,0.0,0,1011.0,0,1,"",97
"2022-05-31 00:26:00",9.4,8.9,0.0,0.0,0,1011.0,0,0,"",97
"2022-05-31 00:27:00",9.4,8.9,0.0,0.0,0,1011.0,0,1,"",97
"2022-05-31 00:28:00",9.4,8.9,0.0,0.0,0,1011.0,0,1,"",97
"2022-05-31 00:29:00",9.4,8.9,0.0,0.0,0,1011.0,0,0,"",97
"2022-05-31 00:30:00",9.4,8.9,0.0,0.0,0,1011.0,1,1,"",97
"2022-05-31 00:31:00",9.3,8.8,0.0,0.0,0,1011.0,1,1,"",97
"2022-05-31 00:32:00",9.2,8.7,0.0,0.0,0,1011.0,0,1,"",97
"2022-05-31 00:33:00",9.2,8.7,0.0,0.0,0,1010.9,0,1,"",97
"2022-05-31 00:34:00",9.2,8.7,0.0,0.0,0,1010.9,0,0,"",97
"2022-05-31 00:35:00",9.2,8.7,0.0,0.0,0,1010.9,0,0,"",97
"2022-05-31 00:36:00",9.1,8.6,0.0,0.0,0,1011.0,0,0,"",97
"2022-05-31 00:37:00",9.1,8.6,0.0,0.0,0,1011.0,0,1,"",97
"2022-05-31 00:38:00",9.1,8.6,0.0,0.0,0,1011.0,0,1,"",97
"2022-05-31 00:39:00",9.0,8.5,0.0,0.0,0,1011.0,0,1,"",97
"2022-05-31 00:40:00",9.0,8.5,0.0,0.0,0,1011.0,0,1,"",97
"2022-05-31 00:41:00",8.9,8.4,0.0,0.0,0,1011.0,0,1,"",97
"2022-05-31 00:42:00",8.9,8.4,0.0,0.0,0,1011.0,0,1,"",97
"2022-05-31 00:43:00",8.9,8.4,0.0,0.0,0,1011.0,0,0,"",97
"2022-05-31 00:44:00",8.9,8.4,0.0,0.0,0,1011.0,0,0,"",97
"2022-05-31 00:45:00",8.8,8.3,0.0,0.0,0,1010.9,0,0,"",97
"2022-05-31 00:46:00",8.8,8.3,0.0,0.0,0,1011.0,0,0,"",97
"2022-05-31 00:47:00",8.8,8.3,0.0,0.0,0,1010.9,0,1,"",97
"2022-05-31 00:48:00",8.7,8.3,0.0,0.0,0,1010.9,0,1,"",97
"2022-05-31 00:49:00",8.7,8.3,0.0,0.0,0,1010.9,0,1,"",97
"2022-05-31 00:50:00",8.7,8.3,0.0,0.0,0,1010.9,0,0,"",97
"2022-05-31 00:51:00",8.7,8.3,0.0,0.0,0,1010.9,0,0,"",97
"2022-05-31 00:52:00",8.6,8.2,0.0,0.0,0,1010.9,0,0,"",97
"2022-05-31 00:53:00",8.6,8.2,0.0,0.0,0,1010.9,0,0,"",97
"2022-05-31 00:54:00",8.6,8.2,0.0,0.0,0,1010.9,0,0,"",97
"2022-05-31 00:55:00",8.5,8.1,0.0,0.0,0,1010.9,0,1,"",97
"2022-05-31 00:56:00",8.4,8.0,0.0,0.0,0,1011.0,1,1,"",97
"2022-05-31 00:57:00",8.4,8.0,0.0,0.0,0,1010.9,0,1,"",97
"2022-05-31 00:58:00",8.4,8.0,0.0,0.0,0,1010.9,1,1,"",97
"2022-05-31 00:59:00",8.3,7.9,0.0,0.0,0,1010.9,1,1,"",97
"2022-05-31 01:00:00",8.3,7.9,0.0,0.0,0,1011.0,0,1,"",97
"2022-05-31 01:01:00",8.3,7.9,0.0,0.0,0,1010.9,0,1,"",97
"2022-05-31 01:02:00",8.3,7.9,0.0,0.0,0,1010.9,0,0,"",97
"2022-05-31 01:03:00",8.3,7.9,0.0,0.0,0,1010.9,0,1,"",97
"2022-05-31 01:04:00",8.3,7.9,0.0,0.0,0,1010.9,0,0,"",97
"2022-05-31 01:05:00",8.3,7.9,0.0,0.0,0,1010.9,0,0,"",97
"2022-05-31 01:06:00",8.3,7.9,0.0,0.0,0,1010.8,0,0,"",97
"2022-05-31 01:07:00",8.2,7.8,0.0,0.0,0,1010.8,0,1,"",97
"2022-05-31 01:08:00",8.2,7.8,0.0,0.0,0,1010.8,0,0,"",97
"2022-05-31 01:09:00",8.2,7.8,0.0,0.0,0,1010.8,0,0,"",97
"2022-05-31 01:10:00",8.2,7.8,0.0,0.0,0,1010.8,0,0,"",97
"2022-05-31 01:11:00",8.2,7.8,0.0,0.0,0,1010.8,0,0,"",97
"2022-05-31 01:12:00",8.2,7.8,0.0,0.0,0,1010.8,0,1,"",97
"2022-05-31 01:13:00",8.1,7.7,0.0,0.0,0,1010.8,0,0,"",97
"2022-05-31 01:14:00",8.1,7.7,0.0,0.0,0,1010.8,0,0,"",97
"2022-05-31 01:15:00",8.1,7.7,0.0,0.0,0,1010.8,0,1,"",97
"2022-05-31 01:16:00",8.0,7.6,0.0,0.0,0,1010.8,0,1,"",97
"2022-05-31 01:17:00",7.9,7.5,0.0,0.0,0,1010.8,0,0,"",97
"2022-05-31 01:18:00",7.9,7.5,0.0,0.0,0,1010.8,0,0,"",97
"2022-05-31 01:19:00",7.9,7.5,0.0,0.0,0,1010.8,0,0,"",97
"2022-05-31 01:20:00",7.8,7.4,0.0,0.0,0,1010.8,0,1,"",97
"2022-05-31 01:21:00",7.8,7.4,0.0,0.0,0,1010.8,0,1,"",97
"2022-05-31 01:22:00",7.8,7.4,0.0,0.0,0,1010.8,0,1,"",97
"2022-05-31 01:23:00",7.7,7.3,0.0,0.0,0,1010.8,0,1,"",97
"2022-05-31 01:24:00",7.7,7.3,0.0,0.0,0,1010.8,1,1,"",97
"2022-05-31 01:25:00",7.7,7.3,0.0,0.0,0,1010.8,1,1,"",97
"2022-05-31 01:26:00",7.6,7.2,0.0,0.0,0,1010.8,1,1,"",97
"2022-05-31 01:27:00",7.7,7.3,0.0,0.0,0,1010.8,0,1,"",97
"2022-05-31 01:28:00",7.6,7.2,0.0,0.0,0,1010.8,0,1,"",97
"2022-05-31 01:29:00",7.6,7.2,0.0,0.0,0,1010.8,0,1,"",97
"2022-05-31 01:30:00",7.7,7.3,0.0,0.0,0,1010.9,0,0,"",97
"2022-05-31 01:31:00",7.7,7.3,0.0,0.0,0,1010.8,0,0,"",97
"2022-05-31 01:32:00",7.7,7.3,0.0,0.0,0,1010.8,0,1,"",97
"2022-05-31 01:33:00",7.8,7.4,0.0,0.0,0,1010.8,0,1,"",97
"2022-05-31 01:34:00",7.8,7.4,0.0,0.0,0,1010.8,0,1,"",97
"2022-05-31 01:35:00",7.8,7.4,0.0,0.0,0,1010.8,0,1,"",97
"2022-05-31 01:36:00",7.8,7.4,0.0,0.0,0,1010.8,0,1,"",97
"2022-05-31 01:37:00",7.8,7.4,0.0,0.0,0,1010.8,0,1,"",97
"2022-05-31 01:38:00",7.8,7.4,0.0,0.0,0,1010.8,0,1,"",97
"2022-05-31 01:39:00",7.8,7.4,0.0,0.0,0,1010.8,0,0,"",97
"2022-05-31 01:40:00",7.8,7.4,0.0,0.0,0,1010.8,0,0,"",97
"2022-05-31 01:41:00",7.7,7.3,0.0,0.0,0,1010.7,0,0,"",97
"2022-05-31 01:42:00",7.7,7.3,0.0,0.0,0,1010.7,0,1,"",97
"2022-05-31 01:43:00",7.7,7.3,0.0,0.0,0,1010.8,0,1,"",97
"2022-05-31 01:44:00",7.7,7.3,0.0,0.0,0,1010.7,0,1,"",97
"2022-05-31 01:45:00",7.7,7.3,0.0,0.0,0,1010.7,0,1,"",97
"2022-05-31 01:46:00",7.7,7.3,0.0,0.0,0,1010.7,0,1,"",97
"2022-05-31 01:47:00",7.7,7.3,0.0,0.0,0,1010.7,0,1,"",97
"2022-05-31 01:48:00",7.7,7.3,0.0,0.0,0,1010.7,0,0,"",97
"2022-05-31 01:49:00",7.7,7.3,0.0,0.0,0,1010.7,0,1,"",97
"2022-05-31 01:50:00",7.7,7.3,0.0,0.0,0,1010.7,0,1,"",97
"2022-05-31 01:51:00",7.6,7.2,0.0,0.0,0,1010.7,0,1,"",97
"2022-05-31 01:52:00",7.6,7.2,0.0,0.0,0,1010.7,0,1,"",97
"2022-05-31 01:53:00",7.7,7.3,0.0,0.0,0,1010.7,0,1,"",97
"2022-05-31 01:54:00",7.7,7.3,0.0,0.0,0,1010.7,0,1,"",97
"2022-05-31 01:55:00",7.6,7.2,0.0,0.0,0,1010.7,0,1,"",97
"2022-05-31 01:56:00",7.7,7.3,0.0,0.0,0,1010.8,0,1,"",97
"2022-05-31 01:57:00",7.7,7.3,0.0,0.0,0,1010.7,0,1,"",97
"2022-05-31 01:58:00",7.7,7.3,0.0,0.0,0,1010.7,0,1,"",97
"2022-05-31 01:59:00",7.7,7.3,0.0,0.0,0,1010.8,0,1,"",97
"2022-05-31 02:00:00",7.7,7.3,0.0,0.0,0,1010.8,0,1,"",97
"2022-05-31 02:01:00",7.7,7.3,0.0,0.0,0,1010.8,0,1,"",97
"2022-05-31 02:02:00",7.7,7.3,0.0,0.0,0,1010.8,0,1,"",97
"2022-05-31 02:03:00",7.7,7.3,0.0,0.0,0,1010.8,0,1,"",97
"2022-05-31 02:04:00",7.7,7.3,0.0,0.0,0,1010.7,0,0,"",97
"2022-05-31 02:05:00",7.7,7.3,0.0,0.0,0,1010.7,0,1,"",97
"2022-05-31 02:06:00",7.7,7.3,0.0,0.0,0,1010.7,0,0,"",97
"2022-05-31 02:07:00",7.8,7.4,0.0,0.0,0,1010.7,0,0,"",97
"2022-05-31 02:08:00",7.8,7.4,0.0,0.0,0,1010.7,0,0,"",97
"2022-05-31 02:09:00",7.8,7.4,0.0,0.0,0,1010.7,0,0,"",97
"2022-05-31 02:10:00",7.8,7.4,0.0,0.0,0,1010.7,0,0,"",97
"2022-05-31 02:11:00",7.8,7.4,0.0,0.0,0,1010.7,0,0,"",97
"2022-05-31 02:12:00",7.8,7.4,0.0,0.0,0,1010.7,0,0,"",97
"2022-05-31 02:13:00",7.8,7.4,0.0,0.0,0,1010.7,0,1,"",97
"2022-05-31 02:14:00",7.8,7.4,0.0,0.0,0,1010.7,0,0,"",97
"2022-05-31 02:15:00",7.8,7.4,0.0,0.0,0,1010.7,0,0,"",97
"2022-05-31 02:16:00",7.8,7.4,0.0,0.0,0,1010.6,0,1,"",97
"2022-05-31 02:17:00",7.7,7.3,0.0,0.0,0,1010.7,0,0,"",97
"2022-05-31 02:18:00",7.7,7.3,0.0,0.0,0,1010.7,0,0,"",97
"2022-05-31 02:19:00",7.7,7.3,0.0,0.0,0,1010.7,0,0,"",97
"2022-05-31 02:20:00",7.7,7.3,0.0,0.0,0,1010.6,0,1,"",97
"2022-05-31 02:21:00",7.7,7.3,0.0,0.0,0,1010.7,0,0,"",97
"2022-05-31 02:22:00",7.6,7.2,0.0,0.0,0,1010.7,0,0,"",97
"2022-05-31 02:23:00",7.6,7.2,0.0,0.0,0,1010.7,0,0,"",97
"2022-05-31 02:24:00",7.6,7.2,0.0,0.0,0,1010.7,0,1,"",97
"2022-05-31 02:25:00",7.6,7.2,0.0,0.0,0,1010.7,0,0,"",97
"2022-05-31 02:26:00",7.6,7.2,0.0,0.0,0,1010.7,0,0,"",97
"2022-05-31 02:27:00",7.5,7.1,0.0,0.0,0,1010.7,0,1,"",97
"2022-05-31 02:28:00",7.5,7.1,0.0,0.0,0,1010.7,0,0,"",97
"2022-05-31 02:29:00",7.5,7.1,0.0,0.0,0,1010.7,0,0,"",97
"2022-05-31 02:30:00",7.5,7.1,0.0,0.0,0,1010.7,0,0,"",97
"2022-05-31 02:31:00",7.4,7.0,0.0,0.0,0,1010.7,0,0,"",97
"2022-05-31 02:32:00",7.4,7.0,0.0,0.0,0,1010.7,0,0,"",97
"2022-05-31 02:33:00",7.4,7.0,0.0,0.0,0,1010.7,0,0,"",97
"2022-05-31 02:34:00",7.4,7.0,0.0,0.0,0,1010.7,0,0,"",97
"2022-05-31 02:35:00",7.3,6.9,0.0,0.0,0,1010.6,1,1,"",97
"2022-05-31 02:36:00",7.3,6.9,0.0,0.0,0,1010.7,1,1,"",97
"2022-05-31 02:37:00",7.3,6.9,0.0,0.0,0,1010.6,0,1,"",97
"2022-05-31 02:38:00",7.3,6.9,0.0,0.0,0,1010.7,0,1,"",97
"2022-05-31 02:39:00",7.3,6.9,0.0,0.0,0,1010.7,0,1,"",97
"2022-05-31 02:40:00",7.4,7.0,0.0,0.0,0,1010.7,0,1,"",97
"2022-05-31 02:41:00",7.4,7.0,0.0,0.0,0,1010.7,0,1,"",97
"2022-05-31 02:42:00",7.4,7.0,0.0,0.0,0,1010.7,1,1,"",97
"2022-05-31 02:43:00",7.4,7.0,0.0,0.0,0,1010.8,0,1,"",97
"2022-05-31 02:44:00",7.4,7.0,0.0,0.0,0,1010.7,0,1,"",97
"2022-05-31 02:45:00",7.4,7.0,0.0,0.0,0,1010.7,0,1,"",97
"2022-05-31 02:46:00",7.4,7.0,0.0,0.0,0,1010.7,0,1,"",97
"2022-05-31 02:47:00",7.4,7.0,0.0,0.0,0,1010.8,0,0,"",97
"2022-05-31 02:48:00",7.4,7.0,0.0,0.0,0,1010.7,0,1,"",97
"2022-05-31 02:49:00",7.4,7.0,0.0,0.0,0,1010.7,0,0,"",97
"2022-05-31 02:50:00",7.5,7.1,0.0,0.0,0,1010.7,0,0,"",97
"2022-05-31 02:51:00",7.5,7.1,0.0,0.0,0,1010.8,0,0,"",97
"2022-05-31 02:52:00",7.5,7.1,0.0,0.0,0,1010.8,0,0,"",97
"2022-05-31 02:53:00",7.6,7.2,0.0,0.0,0,1010.7,0,0,"",97
"2022-05-31 02:54:00",7.6,7.2,0.0,0.0,0,1010.7,0,0,"",97
"2022-05-31 02:55:00",7.6,7.2,0.0,0.0,0,1010.7,0,1,"",97
"2022-05-31 02:56:00",7.6,7.2,0.0,0.0,0,1010.7,0,0,"",97
"2022-05-31 02:57:00",7.6,7.2,0.0,0.0,0,1010.7,0,0,"",97
"2022-05-31 02:58:00",7.6,7.2,0.0,0.0,0,1010.7,0,0,"",97
"2022-05-31 02:59:00",7.6,7.2,0.0,0.0,0,1010.7,0,1,"",97
"2022-05-31 03:00:00",7.7,7.3,0.0,0.0,0,1010.7,0,0,"",97
"2022-05-31 03:01:00",7.6,7.2,0.0,0.0,0,1010.7,0,0,"",97
"2022-05-31 03:02:00",7.7,7.3,0.0,0.0,0,1010.7,0,0,"",97
"2022-05-31 03:03:00",7.7,7.3,0.0,0.0,0,1010.7,0,0,"",97
"2022-05-31 03:04:00",7.7,7.3,0.0,0.0,0,1010.7,0,0,"",97
"2022-05-31 03:05:00",7.7,7.3,0.0,0.0,0,1010.7,0,1,"",97
"2022-05-31 03:06:00",7.7,7.3,0.0,0.0,0,1010.7,0,1,"",97
"2022-05-31 03:07:00",7.7,7.3,0.0,0.0,0,1010.7,0,1,"",97
"2022-05-31 03:08:00",7.7,7.3,0.0,0.0,0,1010.7,0,0,"",97
"2022-05-31 03:09:00",7.7,7.3,0.0,0.0,0,1010.7,0,0,"",97
"2022-05-31 03:10:00",7.7,7.3,0.0,0.0,0,1010.7,0,1,"",97
"2022-05-31 03:11:00",7.7,7.3,0.0,0.0,0,1010.7,0,1,"",97
"2022-05-31 03:12:00",7.8,7.4,0.0,0.0,0,1010.6,0,1,"",97
"2022-05-31 03:13:00",7.7,7.3,0.0,0.0,0,1010.6,0,1,"",97
"2022-05-31 03:14:00",7.7,7.3,0.0,0.0,0,1010.7,0,1,"",97
"2022-05-31 03:15:00",7.7,7.3,0.0,0.0,0,1010.6,0,0,"",97
"2022-05-31 03:16:00",7.7,7.3,0.0,0.0,0,1010.6,0,0,"",97
"2022-05-31 03:17:00",7.7,7.3,0.0,0.0,0,1010.6,0,0,"",97
"2022-05-31 03:18:00",7.6,7.2,0.0,0.0,0,1010.6,1,1,"",97
"2022-05-31 03:19:00",7.6,7.2,0.0,0.0,0,1010.6,0,1,"",97
"2022-05-31 03:20:00",7.6,7.2,0.0,0.0,0,1010.6,0,1,"",97
"2022-05-31 03:21:00",7.6,7.2,0.0,0.0,0,1010.7,0,1,"",97
"2022-05-31 03:22:00",7.6,7.2,0.0,0.0,0,1010.7,0,1,"",97
"2022-05-31 03:23:00",7.5,7.1,0.0,0.0,0,1010.7,0,1,"",97
"2022-05-31 03:24:00",7.6,7.2,0.0,0.0,0,1010.8,0,1,"",97
"2022-05-31 03:25:00",7.6,7.2,0.0,0.0,0,1010.8,0,1,"",97
"2022-05-31 03:26:00",7.6,7.2,0.0,0.0,0,1010.8,0,1,"",97
"2022-05-31 03:27:00",7.6,7.2,0.0,0.0,0,1010.7,0,0,"",97
"2022-05-31 03:28:00",7.6,7.2,0.0,0.0,0,1010.8,0,0,"",97
"2022-05-31 03:29:00",7.6,7.2,0.0,0.0,0,1010.8,0,0,"",97
"2022-05-31 03:30:00",7.6,7.2,0.0,0.0,0,1010.8,0,0,"",97
"2022-05-31 03:31:00",7.6,7.2,0.0,0.0,0,1010.8,0,0,"",97
"2022-05-31 03:32:00",7.6,7.2,0.0,0.0,0,1010.8,0,0,"",97
"2022-05-31 03:33:00",7.6,7.2,0.0,0.0,0,1010.8,0,0,"",97
"2022-05-31 03:34:00",7.7,7.3,0.0,0.0,0,1010.8,0,0,"",97
"2022-05-31 03:35:00",7.7,7.3,0.0,0.0,0,1010.8,0,0,"",97
"2022-05-31 03:36:00",7.7,7.3,0.0,0.0,0,1010.8,0,0,"",97
"2022-05-31 03:37:00",7.6,7.2,0.0,0.0,0,1010.8,0,0,"",97
"2022-05-31 03:38:00",7.6,7.2,0.0,0.0,0,1010.8,0,1,"",97
"2022-05-31 03:39:00",7.6,7.2,0.0,0.0,0,1010.8,0,0,"",97
"2022-05-31 03:40:00",7.6,7.2,0.0,0.0,0,1010.8,0,0,"",97
"2022-05-31 03:41:00",7.6,7.2,0.0,0.0,0,1010.8,0,0,"",97
"2022-05-31 03:42:00",7.6,7.2,0.0,0.0,0,1010.7,0,0,"",97
"2022-05-31 03:43:00",7.6,7.2,0.0,0.0,0,1010.7,0,1,"",97
"2022-05-31 03:44:00",7.6,7.2,0.0,0.0,0,1010.7,0,1,"",97
"2022-05-31 03:45:00",7.6,7.2,0.0,0.0,0,1010.7,1,1,"",97
"2022-05-31 03:46:00",7.6,7.2,0.0,0.0,0,1010.7,0,1,"",97
"2022-05-31 03:47:00",7.6,7.2,0.0,0.0,0,1010.7,0,1,"",97
"2022-05-31 03:48:00",7.6,7.2,0.0,0.0,0,1010.7,0,1,"",97
"2022-05-31 03:49:00",7.6,7.2,0.0,0.0,0,1010.7,0,1,"",97
"2022-05-31 03:50:00",7.7,7.3,0.0,0.0,0,1010.7,0,1,"",97
"2022-05-31 03:51:00",7.6,7.2,0.0,0.0,0,1010.7,0,1,"",97
"2022-05-31 03:52:00",7.6,7.3,0.0,0.0,0,1010.7,0,1,"",98
"2022-05-31 03:53:00",7.6,7.2,0.0,0.0,0,1010.7,0,1,"",97
"2022-05-31 03:54:00",7.6,7.2,0.0,0.0,0,1010.7,0,1,"",97
"2022-05-31 03:55:00",7.6,7.2,0.0,0.0,0,1010.8,0,1,"",97
"2022-05-31 03:56:00",7.6,7.2,0.0,0.0,0,1010.8,0,1,"",97
"2022-05-31 03:57:00",7.7,7.3,0.0,0.0,0,1010.8,0,0,"",97
"2022-05-31 03:58:00",7.7,7.3,0.0,0.0,0,1010.8,0,1,"",97
"2022-05-31 03:59:00",7.7,7.3,0.0,0.0,0,1010.8,0,1,"",97
"2022-05-31 04:00:00",7.7,7.3,0.0,0.0,0,1010.8,0,1,"",97
"2022-05-31 04:01:00",7.7,7.4,0.0,0.0,0,1010.8,0,1,"",98
"2022-05-31 04:02:00",7.7,7.4,0.0,0.0,0,1010.8,0,0,"",98
"2022-05-31 04:03:00",7.7,7.4,0.0,0.0,0,1010.8,0,0,"",98
"2022-05-31 04:04:00",7.7,7.4,0.0,0.0,0,1010.7,0,0,"",98
"2022-05-31 04:05:00",7.8,7.4,0.0,0.0,0,1010.7,0,1,"",97
"2022-05-31 04:06:00",7.7,7.3,0.0,0.0,0,1010.7,0,1,"",97
"2022-05-31 04:07:00",7.7,7.3,0.0,0.0,0,1010.7,0,0,"",97
"2022-05-31 04:08:00",7.7,7.3,0.0,0.0,0,1010.7,0,1,"",97
"2022-05-31 04:09:00",7.7,7.3,0.0,0.0,0,1010.7,0,1,"",97
"2022-05-31 04:10:00",7.8,7.4,0.0,0.0,0,1010.7,0,0,"",97
"2022-05-31 04:11:00",7.8,7.4,0.0,0.0,0,1010.7,0,1,"",97
"2022-05-31 04:12:00",7.8,7.4,0.0,0.0,0,1010.7,0,0,"",97
"2022-05-31 04:13:00",7.8,7.4,0.0,0.0,0,1010.8,0,0,"",97
"2022-05-31 04:14:00",7.8,7.4,0.0,0.0,0,1010.7,0,0,"",97
"2022-05-31 04:15:00",7.8,7.4,0.0,0.0,0,1010.7,0,1,"",97
"2022-05-31 04:16:00",7.9,7.5,0.0,0.0,0,1010.7,0,0,"",97
"2022-05-31 04:17:00",7.9,7.6,0.0,0.0,0,1010.7,0,0,"",98
"2022-05-31 04:18:00",7.9,7.6,0.0,0.0,0,1010.6,0,1,"",98
"2022-05-31 04:19:00",7.9,7.6,0.0,0.0,0,1010.6,0,1,"",98
"2022-05-31 04:20:00",7.9,7.6,0.0,0.0,0,1010.6,0,1,"",98
"2022-05-31 04:21:00",7.9,7.6,0.0,0.0,0,1010.6,0,0,"",98
"2022-05-31 04:22:00",7.9,7.6,0.0,0.0,0,1010.6,0,1,"",98
"2022-05-31 04:23:00",7.8,7.4,0.0,0.0,0,1010.6,1,1,"",97
"2022-05-31 04:24:00",7.8,7.4,0.0,0.0,0,1010.6,1,1,"",97
"2022-05-31 04:25:00",7.8,7.4,0.0,0.0,0,1010.6,0,1,"",97
"2022-05-31 04:26:00",7.8,7.4,0.0,0.0,0,1010.6,0,0,"",97
"2022-05-31 04:27:00",7.9,7.5,0.0,0.0,0,1010.6,0,1,"",97
"2022-05-31 04:28:00",7.9,7.6,0.0,0.0,0,1010.6,0,0,"",98
"2022-05-31 04:29:00",7.9,7.6,0.0,0.0,0,1010.6,0,1,"",98
"2022-05-31 04:30:00",7.9,7.6,0.0,0.0,0,1010.6,0,0,"",98
"2022-05-31 04:31:00",7.9,7.6,0.0,0.0,0,1010.6,0,0,"",98
"2022-05-31 04:32:00",7.9,7.6,0.0,0.0,0,1010.6,0,1,"",98
"2022-05-31 04:33:00",7.8,7.5,0.0,0.0,0,1010.6,1,1,"",98
"2022-05-31 04:34:00",7.8,7.4,0.0,0.0,0,1010.6,1,1,"",97
"2022-05-31 04:35:00",7.8,7.4,0.0,0.0,0,1010.6,0,1,"",97
"2022-05-31 04:36:00",7.8,7.4,0.0,0.0,0,1010.6,0,1,"",97
"2022-05-31 04:37:00",7.8,7.4,0.0,0.0,0,1010.6,0,1,"",97
"2022-05-31 04:38:00",7.8,7.4,0.0,0.0,0,1010.6,0,1,"",97
"2022-05-31 04:39:00",7.8,7.4,0.0,0.0,0,1010.6,0,0,"",97
"2022-05-31 04:40:00",7.8,7.4,0.0,0.0,0,1010.6,0,1,"",97
"2022-05-31 04:41:00",7.7,7.3,0.0,0.0,0,1010.6,0,1,"",97
"2022-05-31 04:42:00",7.8,7.4,0.0,0.0,0,1010.6,0,1,"",97
"2022-05-31 04:43:00",7.7,7.3,0.0,0.0,0,1010.5,0,1,"",97
"2022-05-31 04:44:00",7.7,7.3,0.0,0.0,0,1010.5,0,1,"",97
"2022-05-31 04:45:00",7.7,7.3,0.0,0.0,0,1010.6,0,1,"",97
"2022-05-31 04:46:00",7.8,7.4,0.0,0.0,0,1010.6,0,0,"",97
"2022-05-31 04:47:00",7.8,7.4,0.0,0.0,0,1010.6,0,0,"",97
"2022-05-31 04:48:00",7.8,7.4,0.0,0.0,0,1010.6,0,0,"",97
"2022-05-31 04:49:00",7.8,7.4,0.0,0.0,0,1010.6,0,1,"",97
"2022-05-31 04:50:00",7.8,7.4,0.0,0.0,0,1010.6,0,1,"",97
"2022-05-31 04:51:00",7.8,7.4,0.0,0.0,0,1010.5,0,0,"",97
"2022-05-31 04:52:00",7.8,7.4,0.0,0.0,0,1010.6,0,0,"",97
"2022-05-31 04:53:00",7.8,7.4,0.0,0.0,0,1010.6,0,1,"",97
"2022-05-31 04:54:00",7.8,7.4,0.0,0.0,0,1010.6,0,1,"",97
"2022-05-31 04:55:00",7.8,7.4,0.0,0.0,0,1010.6,0,1,"",97
"2022-05-31 04:56:00",7.8,7.4,0.0,0.0,0,1010.6,0,0,"",97
"2022-05-31 04:57:00",7.8,7.4,0.0,0.0,0,1010.6,0,1,"",97
"2022-05-31 04:58:00",7.8,7.4,0.0,0.0,0,1010.6,0,1,"",97
"2022-05-31 04:59:00",7.8,7.4,0.0,0.0,0,1010.6,0,1,"",97
"2022-05-31 05:00:00",7.8,7.4,0.0,0.0,0,1010.6,0,1,"",97
"2022-05-31 05:01:00",7.7,7.3,0.0,0.0,0,1010.6,0,1,"",97
"2022-05-31 05:02:00",7.8,7.4,0.0,0.0,0,1010.6,0,1,"",97
"2022-05-31 05:03:00",7.8,7.4,0.0,0.0,0,1010.6,0,1,"",97
"2022-05-31 05:04:00",7.8,7.4,0.0,0.0,0,1010.6,0,1,"",97
"2022-05-31 05:05:00",7.7,7.3,0.0,0.0,0,1010.6,0,1,"",97
"2022-05-31 05:06:00",7.7,7.3,0.0,0.0,0,1010.6,0,1,"",97
"2022-05-31 05:07:00",7.7,7.3,0.0,0.0,0,1010.5,0,1,"",97
"2022-05-31 05:08:00",7.7,7.3,0.0,0.0,0,1010.5,0,1,"",97
"2022-05-31 05:09:00",7.8,7.4,0.0,0.0,0,1010.5,0,0,"",97
"2022-05-31 05:10:00",7.8,7.4,0.0,0.0,0,1010.6,0,1,"",97
"2022-05-31 05:11:00",7.8,7.4,0.0,0.0,0,1010.5,0,1,"",97
"2022-05-31 05:12:00",7.8,7.4,0.0,0.0,5,1010.5,0,0,"",97
"2022-05-31 05:13:00",7.8,7.4,0.0,0.0,5,1010.5,0,1,"",97
"2022-05-31 05:14:00",7.8,7.4,0.0,0.0,5,1010.5,0,1,"",97
"2022-05-31 05:15:00",7.7,7.3,0.0,0.0,5,1010.5,0,1,"",97
"2022-05-31 05:16:00",7.8,7.4,0.0,0.0,5,1010.5,0,1,"",97
"2022-05-31 05:17:00",7.7,7.3,0.0,0.0,5,1010.5,0,1,"",97
"2022-05-31 05:18:00",7.7,7.3,0.0,0.0,5,1010.5,0,0,"",97
"2022-05-31 05:19:00",7.8,7.4,0.0,0.0,5,1010.5,0,1,"",97
"2022-05-31 05:20:00",7.7,7.3,0.0,0.0,5,1010.5,0,1,"",97
"2022-05-31 05:21:00",7.7,7.3,0.0,0.0,7,1010.5,0,1,"",97
"2022-05-31 05:22:00",7.8,7.4,0.0,0.0,7,1010.5,0,1,"",97
"2022-05-31 05:23:00",7.7,7.3,0.0,0.0,7,1010.5,0,1,"",97
"2022-05-31 05:24:00",7.8,7.4,0.0,0.0,7,1010.5,0,1,"",97
"2022-05-31 05:25:00",7.7,7.3,0.0,0.0,7,1010.4,0,1,"",97
"2022-05-31 05:26:00",7.8,7.4,0.0,0.0,7,1010.5,0,1,"",97
"2022-05-31 05:27:00",7.8,7.4,0.0,0.0,7,1010.5,0,1,"",97
"2022-05-31 05:28:00",7.8,7.4,0.0,0.0,9,1010.5,0,1,"",97
"2022-05-31 05:29:00",7.8,7.4,0.0,0.0,9,1010.5,1,1,"",97
"2022-05-31 05:30:00",7.8,7.4,0.0,0.0,9,1010.5,0,0,"",97
"2022-05-31 05:31:00",7.8,7.4,0.0,0.0,9,1010.5,0,0,"",97
"2022-05-31 05:32:00",7.8,7.5,0.0,0.0,9,1010.5,0,0,"",98
"2022-05-31 05:33:00",7.8,7.4,0.0,0.0,9,1010.5,0,0,"",97
"2022-05-31 05:34:00",7.8,7.5,0.0,0.0,9,1010.5,0,0,"",98
"2022-05-31 05:35:00",7.8,7.4,0.0,0.0,9,1010.5,0,1,"",97
"2022-05-31 05:36:00",7.8,7.5,0.0,0.0,9,1010.5,0,0,"",98
"2022-05-31 05:37:00",7.8,7.4,0.0,0.0,9,1010.5,0,1,"",97
"2022-05-31 05:38:00",7.8,7.4,0.0,0.0,9,1010.5,0,1,"",97
"2022-05-31 05:39:00",7.9,7.6,0.0,0.0,9,1010.5,0,1,"",98
"2022-05-31 05:40:00",7.9,7.6,0.0,0.0,9,1010.5,0,1,"",98
"2022-05-31 05:41:00",7.9,7.6,0.0,0.0,9,1010.5,0,1,"",98
"2022-05-31 05:42:00",7.9,7.6,0.0,0.0,11,1010.5,0,1,"",98
"2022-05-31 05:43:00",7.9,7.6,0.0,0.0,11,1010.5,0,0,"",98
"2022-05-31 05:44:00",7.9,7.6,0.0,0.0,11,1010.5,0,1,"",98
"2022-05-31 05:45:00",7.9,7.6,0.0,0.0,12,1010.5,0,0,"",98
"2022-05-31 05:46:00",7.9,7.6,0.0,0.0,12,1010.5,0,0,"",98
"2022-05-31 05:47:00",7.9,7.6,0.0,0.0,12,1010.5,0,1,"",98
"2022-05-31 05:48:00",8.0,7.7,0.0,0.0,14,1010.5,0,0,"",98
"2022-05-31 05:49:00",8.1,7.8,0.0,0.0,14,1010.5,0,0,"",98
"2022-05-31 05:50:00",8.1,7.8,0.0,0.0,16,1010.5,0,0,"",98
"2022-05-31 05:51:00",8.1,7.8,0.0,0.0,16,1010.5,0,1,"",98
"2022-05-31 05:52:00",8.1,7.8,0.0,0.0,18,1010.5,0,1,"",98
"2022-05-31 05:53:00",8.1,7.8,0.0,0.0,19,1010.5,0,0,"",98
"2022-05-31 05:54:00",8.1,7.8,0.0,0.0,21,1010.5,0,0,"",98
"2022-05-31 05:55:00",8.1,7.8,0.0,0.0,21,1010.5,0,1,"",98
"2022-05-31 05:56:00",8.1,7.8,0.0,0.0,23,1010.5,0,1,"",98
"2022-05-31 05:57:00",8.1,7.8,0.0,0.0,25,1010.5,0,0,"",98
"2022-05-31 05:58:00",8.1,7.8,0.0,0.0,25,1010.5,0,1,"",98
"2022-05-31 05:59:00",8.1,7.8,0.0,0.0,28,1010.5,0,1,"",98
"2022-05-31 06:00:00",8.2,7.9,0.0,0.0,28,1010.5,0,0,"",98
"2022-05-31 06:01:00",8.2,7.9,0.0,0.0,30,1010.5,0,1,"",98
"2022-05-31 06:02:00",8.2,7.9,0.0,0.0,30,1010.5,0,1,"",98
"2022-05-31 06:03:00",8.2,7.9,0.0,0.0,32,1010.5,0,1,"",98
"2022-05-31 06:04:00",8.2,7.9,0.0,0.0,32,1010.5,1,2,"",98
"2022-05-31 06:05:00",8.2,7.9,0.0,0.0,33,1010.6,0,1,"",98
"2022-05-31 06:06:00",8.2,7.9,0.0,0.0,35,1010.5,0,1,"",98
"2022-05-31 06:07:00",8.2,7.9,0.0,0.0,35,1010.5,0,1,"",98
"2022-05-31 06:08:00",8.2,7.9,0.0,0.0,35,1010.5,0,1,"",98
"2022-05-31 06:09:00",8.2,7.9,0.0,0.0,35,1010.5,0,1,"",98
"2022-05-31 06:10:00",8.2,7.9,0.0,0.0,35,1010.5,0,1,"",98
"2022-05-31 06:11:00",8.2,7.9,0.0,0.0,35,1010.5,0,1,"",98
"2022-05-31 06:12:00",8.2,7.9,0.0,0.0,33,1010.6,0,1,"",98
"2022-05-31 06:13:00",8.2,7.9,0.0,0.0,33,1010.5,0,1,"",98
"2022-05-31 06:14:00",8.3,8.0,0.0,0.0,33,1010.5,0,1,"",98
"2022-05-31 06:15:00",8.3,8.0,0.0,0.0,33,1010.5,0,1,"",98
"2022-05-31 06:16:00",8.3,8.0,0.0,0.0,33,1010.5,0,1,"",98
"2022-05-31 06:17:00",8.3,8.0,0.0,0.0,35,1010.5,0,1,"",98
"2022-05-31 06:18:00",8.3,8.0,0.0,0.0,35,1010.5,0,1,"",98
"2022-05-31 06:19:00",8.3,8.0,0.0,0.0,37,1010.5,0,1,"",98
"2022-05-31 06:20:00",8.3,8.0,0.0,0.0,37,1010.5,0,1,"",98
"2022-05-31 06:21:00",8.3,8.0,0.0,0.0,39,1010.5,0,1,"",98
"2022-05-31 06:22:00",8.3,8.0,0.0,0.0,40,1010.5,1,1,"",98
"2022-05-31 06:23:00",8.3,8.0,0.0,0.0,40,1010.6,0,1,"",98
"2022-05-31 06:24:00",8.4,8.1,0.0,0.0,42,1010.6,0,1,"",98
"2022-05-31 06:25:00",8.4,8.1,0.0,0.0,42,1010.6,0,1,"",98
"2022-05-31 06:26:00",8.4,8.1,0.0,0.0,44,1010.6,0,1,"",98
"2022-05-31 06:27:00",8.4,8.1,0.0,0.0,46,1010.5,0,1,"",98
"2022-05-31 06:28:00",8.4,8.1,0.0,0.0,47,1010.5,1,1,"",98
"2022-05-31 06:29:00",8.5,8.2,0.0,0.0,49,1010.5,1,1,"",98
"2022-05-31 06:30:00",8.5,8.2,0.0,0.0,49,1010.6,1,1,"",98
"2022-05-31 06:31:00",8.5,8.2,0.0,0.0,51,1010.5,1,1,"",98
"2022-05-31 06:32:00",8.6,8.3,0.0,0.0,53,1010.5,0,1,"",98
"2022-05-31 06:33:00",8.6,8.3,0.0,0.0,53,1010.5,0,1,"",98
"2022-05-31 06:34:00",8.7,8.4,0.0,0.0,56,1010.6,0,1,"",98
"2022-05-31 06:35:00",8.7,8.4,0.0,0.0,56,1010.6,0,0,"",98
"2022-05-31 06:36:00",8.8,8.5,0.0,0.0,58,1010.5,0,0,"",98
"2022-05-31 06:37:00",8.8,8.5,0.0,0.0,58,1010.5,0,0,"",98
"2022-05-31 06:38:00",8.8,8.5,0.0,0.0,60,1010.6,0,1,"",98
"2022-05-31 06:39:00",8.8,8.5,0.0,0.0,60,1010.6,0,1,"",98
"2022-05-31 06:40:00",8.8,8.5,0.0,0.0,62,1010.6,0,1,"",98
"2022-05-31 06:41:00",8.8,8.5,0.0,0.0,62,1010.6,0,1,"",98
"2022-05-31 06:42:00",8.8,8.5,0.0,0.0,62,1010.6,0,0,"",98
"2022-05-31 06:43:00",8.8,8.5,0.0,0.0,62,1010.6,0,1,"",98
"2022-05-31 06:44:00",8.8,8.5,0.0,0.0,62,1010.6,0,1,"",98
"2022-05-31 06:45:00",8.8,8.5,0.0,0.0,62,1010.6,0,1,"",98
"2022-05-31 06:46:00",8.9,8.6,0.0,0.0,63,1010.6,0,0,"",98
"2022-05-31 06:47:00",8.9,8.6,0.0,0.0,63,1010.7,0,1,"",98
"2022-05-31 06:48:00",8.9,8.6,0.0,0.0,63,1010.6,0,1,"",98
"2022-05-31 06:49:00",8.9,8.6,0.0,0.0,65,1010.6,0,1,"",98
"2022-05-31 06:50:00",8.9,8.6,0.0,0.0,69,1010.6,0,1,"",98
"2022-05-31 06:51:00",8.9,8.6,0.0,0.0,70,1010.6,0,1,"",98
"2022-05-31 06:52:00",9.0,8.7,0.0,0.0,74,1010.7,0,1,"",98
"2022-05-31 06:53:00",9.1,8.8,0.0,0.0,76,1010.6,0,1,"",98
"2022-05-31 06:54:00",9.1,8.8,0.0,0.0,77,1010.6,0,1,"",98
"2022-05-31 06:55:00",9.1,8.8,0.0,0.0,77,1010.6,0,0,"",98
"2022-05-31 06:56:00",9.2,8.9,0.0,0.0,77,1010.6,0,1,"",98